{"data":{"norad_id":59127,"epoch":"2026-05-25T03:09:14.910912Z","epoch_age_seconds":56945,"freshness":"FRESH","line1":"1 59127U 24043AF  26145.13142258  .00015070  00000+0  33522-3 0  9991","line2":"2 59127  97.5552 289.2272 0005710 303.8229  56.2474 15.43737357123998","mean_motion":15.43737357,"eccentricity":0.000571,"inclination_deg":97.5552,"raan_deg":289.2272,"arg_perigee_deg":303.8229,"mean_anomaly_deg":56.2474,"bstar":0.00033522,"rev_number":12399,"period_min":93.280116171989,"perigee_km":431.20027422467,"apogee_km":438.98098017493,"semimajor_km":6813.2276271998,"source":"CELESTRAK","updated_at":"2026-05-25T13:38:01.195351Z"}}